星链-5395 (STARLINK-5395 )

导读

STARLINK-5395是美国SpaceX公司星链星座的一员,于2022年12月28日发射。星链项目旨在低地球轨道构建全球卫星互联网,为偏远缺基础设施区域提供高速低延迟宽带服务。该卫星重约297千克,运行在548公里高度轨道,目前已在轨运行超3年,为星链全球网络覆盖提供支撑,推动了全球互联网接入的普及。

基本信息
目录编号:
54831
目录名称:
STARLINK-5395
国际标识:
2022-177M
轨道中心:
EARTH
卫星名称:
星链-5395
卫星全名:
星链-5395 (STARLINK-5395 )
卫星状态:
在轨 (已飞行1346 天)
发射日期:
2022-12-28 UTC
国别 :
美国 (US)
星等 :
--
轨道信息
数据来源 国际轨道数据 AOE轨道数据
星历时间 2026-09-03T14:42:39+0800
1天前
查看轨道信息
2026-09-03T23:00:00+0800
21小时前
查看轨道信息
半长轴 6861.198km 6861.186km
偏心率 0.0000654 0.0000987
轨道倾角 43.001° 43.000°
近地点辐角 248.950° 232.035°
升交点赤经 213.106° 211.163°
平近点角 111.128° 229.654°
近地点 482.612km 482.371km
远地点 483.51km 483.727km
周期 94.267分钟 94.267分钟
每日圈数 15.275762 15.275803
详细信息
固有亮度:
5
最大亮度:
2.5
卫星平台:
Starlink v1.5
覆盖范围:
全球
运营商:
太空探索技术公司
运营商所在国:
美国
制造商(研发单位):
太空探索技术公司
制造商所在国:
美国
使用方式:
暂无
卫星简介
星链(Starlink)计划是由太空探索技术公司(SpaceX)提出的一个巨型低轨卫星互联网星座项目,计划在2019年至2024年间在太空搭建由约1.2万颗卫星组成的“星链”网络,其中1584颗将部署在地球上空550千米处的近地轨道,并从2020年开始工作。该卫星仍在工作。
2D轨道图
3D轨道图
轨道高度分析图
轨道倾角分析图
轨道综合分析图
查看轨道综合分析图